FW5778 Weather Reports


Display with metric or nautical units.
time (UTC)temp
F
wind
direction
speed
MPH
gust
MPH
rain 1hr
in
rain 24hr
in
rain mn
in
humidity
%
barometer
mb
20260504002517 72 6 2.0 6.0 0.00 0.00 0.00 15 1011.0
20260504002016 72 9 3.0 7.0 0.00 0.00 0.00 15 1011.0
20260504001514 72 18 3.0 13.0 0.00 0.00 0.00 15 1011.0
20260504001014 72 1 7.0 13.0 0.00 0.00 0.00 14 1011.0
20260504000513 73 10 5.0 10.0 0.00 0.00 0.00 15 1010.9
20260504000015 73 6 4.0 11.0 0.00 0.00 0.00 15 1011.0
20260503235512 73 347 6.0 12.0 0.00 0.00 0.00 14 1011.0
20260503235012 73 2 5.0 12.0 0.00 0.00 0.00 14 1011.0
20260503234512 73 347 3.0 10.0 0.00 0.00 0.00 15 1010.9
20260503234012 73 359 6.0 10.0 0.00 0.00 0.00 14 1010.9
20260503233511 73 329 3.0 11.0 0.00 0.00 0.00 14 1011.0
20260503233019 73 11 5.0 11.0 0.00 0.00 0.00 14 1011.0
20260503232510 74 321 4.0 8.0 0.00 0.00 0.00 14 1011.1
20260503232012 74 328 4.0 12.0 0.00 0.00 0.00 15 1011.2
20260503231510 74 318 4.0 7.0 0.00 0.00 0.00 14 1011.2
20260503231010 74 53 2.0 9.0 0.00 0.00 0.00 14 1011.1
20260503230514 74 288 2.0 9.0 0.00 0.00 0.00 14 1011.1
20260503230008 74 250 2.0 8.0 0.00 0.00 0.00 14 1011.2
20260503225507 75 256 2.0 6.0 0.00 0.00 0.00 13 1011.4
20260503225010 75 232 3.0 7.0 0.00 0.00 0.00 13 1011.4
20260503224506 75 162 3.0 7.0 0.00 0.00 0.00 13 1011.5
20260503224006 75 91 0.0 5.0 0.00 0.00 0.00 14 1011.5
20260503223505 75 147 0.0 4.0 0.00 0.00 0.00 13 1011.6
20260503223006 75 101 2.0 4.0 0.00 0.00 0.00 13 1011.6
20260503222504 75 133 1.0 11.0 0.00 0.00 0.00 13 1011.6
20260503222006 75 89 4.0 11.0 0.00 0.00 0.00 13 1011.7
20260503221503 74 86 0.0 8.0 0.00 0.00 0.00 13 1011.8
20260503221005 75 41 3.0 6.0 0.00 0.00 0.00 12 1011.8
20260503220503 75 42 3.0 7.0 0.00 0.00 0.00 12 1011.9
20260503220002 74 32 4.0 10.0 0.00 0.00 0.00 12 1012.1
20260503215600 75 125 5.0 10.0 0.00 0.00 0.00 13 1012.2
20260503215100 74 96 3.0 10.0 0.00 0.00 0.00 12 1012.3
20260503214602 75 61 5.0 10.0 0.00 0.00 0.00 12 1012.4
20260503214101 75 105 4.0 11.0 0.00 0.00 0.00 12 1012.5
20260503213559 76 59 3.0 11.0 0.00 0.00 0.00 12 1012.7
20260503213057 76 149 5.0 10.0 0.00 0.00 0.00 11 1012.7
20260503212556 75 49 0.0 6.0 0.00 0.00 0.00 13 1012.8
20260503212056 75 139 0.0 9.0 0.00 0.00 0.00 12 1012.9
20260503211555 75 131 4.0 12.0 0.00 0.00 0.00 12 1013.0
20260503211056 75 152 3.0 12.0 0.00 0.00 0.00 12 1013.1
20260503210553 75 106 4.0 13.0 0.00 0.00 0.00 10 1013.2
20260503210053 76 104 6.0 11.0 0.00 0.00 0.00 12 1013.2
20260503205552 76 177 5.0 11.0 0.00 0.00 0.00 12 1013.4
20260503205051 76 143 6.0 11.0 0.00 0.00 0.00 11 1013.5
20260503204551 75 125 5.0 12.0 0.00 0.00 0.00 10 1013.5
20260503204049 75 160 7.0 12.0 0.00 0.00 0.00 10 1013.6
20260503203549 75 117 6.0 12.0 0.00 0.00 0.00 11 1013.7
20260503203104 75 151 7.0 12.0 0.00 0.00 0.00 12 1013.7
20260503202548 75 151 5.0 12.0 0.00 0.00 0.00 12 1013.8
20260503202047 75 108 5.0 12.0 0.00 0.00 0.00 12 1013.9
20260503201546 75 122 7.0 11.0 0.00 0.00 0.00 14 1014.0
20260503201046 75 100 5.0 14.0 0.00 0.00 0.00 14 1014.1
20260503200547 75 102 7.0 14.0 0.00 0.00 0.00 15 1014.1
20260503200044 74 206 7.0 13.0 0.00 0.00 0.00 14 1014.2
20260503195543 75 132 7.0 13.0 0.00 0.00 0.00 14 1014.2
20260503195042 74 161 7.0 12.0 0.00 0.00 0.00 14 1014.3
20260503194544 73 65 5.0 12.0 0.00 0.00 0.00 17 1014.4
20260503194040 73 154 3.0 12.0 0.00 0.00 0.00 17 1014.6
20260503193539 73 167 4.0 12.0 0.00 0.00 0.00 18 1014.6
20260503193039 72 113 4.0 13.0 0.00 0.00 0.00 18 1014.7
20260503192537 72 143 6.0 11.0 0.00 0.00 0.00 17 1014.8
20260503192037 72 118 8.0 11.0 0.00 0.00 0.00 16 1014.8
20260503191545 72 141 4.0 13.0 0.00 0.00 0.00 18 1014.9
20260503191036 72 135 7.0 13.0 0.00 0.00 0.00 18 1015.0
20260503190535 72 107 6.0 14.0 0.00 0.00 0.00 18 1015.1
20260503190040 72 138 7.0 15.0 0.00 0.00 0.00 18 1015.3
20260503185533 73 141 8.0 15.0 0.00 0.00 0.00 17 1015.2
20260503185034 73 151 5.0 14.0 0.00 0.00 0.00 18 1015.3
20260503184533 73 143 8.0 14.0 0.00 0.00 0.00 17 1015.5
20260503184030 72 102 7.0 14.0 0.00 0.00 0.00 17 1015.4
20260503183534 72 131 7.0 14.0 0.00 0.00 0.00 17 1015.6
20260503183032 73 181 7.0 14.0 0.00 0.00 0.00 18 1015.7
20260503182528 73 150 7.0 14.0 0.00 0.00 0.00 17 1015.7
20260503182028 72 134 7.0 14.0 0.00 0.00 0.00 18 1015.9
20260503181527 72 130 7.0 13.0 0.00 0.00 0.00 17 1016.0
20260503181026 71 139 7.0 14.0 0.00 0.00 0.00 18 1016.1
20260503180525 71 132 8.0 14.0 0.00 0.00 0.00 18 1016.2
20260503180026 71 115 7.0 17.0 0.00 0.00 0.00 19 1016.2
20260503175523 71 136 10.0 17.0 0.00 0.00 0.00 18 1016.3
20260503175022 71 118 5.0 15.0 0.00 0.00 0.00 19 1016.3
20260503174522 70 176 9.0 15.0 0.00 0.00 0.00 18 1016.4
20260503174023 70 99 7.0 14.0 0.00 0.00 0.00 20 1016.3
20260503173521 71 130 7.0 13.0 0.00 0.00 0.00 19 1016.4
20260503173020 71 144 5.0 12.0 0.00 0.00 0.00 21 1016.5
20260503172519 70 148 5.0 13.0 0.00 0.00 0.00 21 1016.6
20260503172017 69 174 7.0 16.0 0.00 0.00 0.00 20 1016.7
20260503171517 69 139 9.0 14.0 0.00 0.00 0.00 19 1016.7
20260503171017 69 154 7.0 15.0 0.00 0.00 0.00 20 1016.7
20260503170516 69 157 7.0 14.0 0.00 0.00 0.00 20 1016.7
20260503150553 59 155 4.0 10.0 0.00 0.00 0.00 36 1017.6
20260503131037 50 221 1.0 2.0 0.00 0.00 0.00 39 1017.3
20260503130539 49 223 0.0 2.0 0.00 0.00 0.00 42 1017.2
20260503110526 52 221 1.0 4.0 0.00 0.00 0.00 39 1017.9
20260503081525 54 234 2.0 5.0 0.00 0.00 0.00 33 1017.9
20260503081012 54 249 2.0 5.0 0.00 0.00 0.00 33 1017.9
20260503080512 54 205 3.0 5.0 0.00 0.00 0.00 34 1018.1
20260503072508 51 213 1.0 3.0 0.00 0.00 0.00 41 1018.3
20260503072007 51 250 0.0 0.0 0.00 0.00 0.00 40 1018.3
20260503071507 51 243 0.0 0.0 0.00 0.00 0.00 40 1018.3
20260503071006 52 182 0.0 0.0 0.00 0.00 0.00 40 1018.4
20260503070504 52 128 0.0 0.0 0.00 0.00 0.00 39 1018.4
20260503060115 56 256 2.0 4.0 0.00 0.00 0.00 31 1018.4
20260503055051 57 250 1.0 3.0 0.00 0.00 0.00 30 1018.4
20260503054651 57 231 1.0 3.0 0.00 0.00 0.00 30 1018.4
20260503054054 57 268 1.0 4.0 0.00 0.00 0.00 30 1018.3
20260503053551 57 278 1.0 4.0 0.00 0.00 0.00 31 1018.4
20260503053051 57 267 1.0 3.0 0.00 0.00 0.00 31 1018.4
20260503052551 57 255 1.0 3.0 0.00 0.00 0.00 31 1018.4
20260503052050 57 264 1.0 4.0 0.00 0.00 0.00 31 1018.4
20260503051550 57 267 1.0 4.0 0.00 0.00 0.00 31 1018.4
20260503051050 57 238 1.0 3.0 0.00 0.00 0.00 31 1018.4
20260503050552 58 266 1.0 3.0 0.00 0.00 0.00 30 1018.5
20260503050050 58 274 1.0 4.0 0.00 0.00 0.00 30 1018.5
20260503045551 58 231 2.0 4.0 0.00 0.00 0.00 30 1018.4
20260503045049 58 259 2.0 4.0 0.00 0.00 0.00 30 1018.5
20260503044550 58 258 1.0 4.0 0.00 0.00 0.00 30 1018.5
20260503044049 58 254 1.0 4.0 0.00 0.00 0.00 30 1018.5
20260503043549 58 274 2.0 6.0 0.00 0.00 0.00 30 1018.6
20260503043050 58 286 2.0 6.0 0.00 0.00 0.00 30 1018.6
20260503042548 58 288 2.0 5.0 0.00 0.00 0.00 30 1018.6
20260503042048 58 254 1.0 3.0 0.00 0.00 0.00 30 1018.5
20260503041548 59 262 1.0 3.0 0.00 0.00 0.00 30 1018.5
20260503041047 59 240 1.0 3.0 0.00 0.00 0.00 30 1018.5
20260503040547 59 243 0.0 3.0 0.00 0.00 0.00 29 1018.5
20260503040048 59 272 1.0 3.0 0.00 0.00 0.00 29 1018.5
20260503035547 59 281 1.0 3.0 0.00 0.00 0.00 29 1018.4
20260503035049 60 274 0.0 2.0 0.00 0.00 0.00 29 1018.4
20260503034547 60 266 1.0 3.0 0.00 0.00 0.00 29 1018.4
20260503034047 60 275 1.0 4.0 0.00 0.00 0.00 29 1018.3
20260503033545 60 283 2.0 4.0 0.00 0.00 0.00 28 1018.3
20260503033046 60 283 1.0 4.0 0.00 0.00 0.00 28 1018.3
20260503032546 61 259 1.0 4.0 0.00 0.00 0.00 28 1018.2
20260503032045 61 274 2.0 3.0 0.00 0.00 0.00 27 1018.2
20260503031547 61 285 1.0 3.0 0.00 0.00 0.00 27 1018.1
20260503031045 62 274 1.0 4.0 0.00 0.00 0.00 27 1018.1
20260503030544 62 277 1.0 3.0 0.00 0.00 0.00 26 1018.2
20260503030048 63 288 0.0 2.0 0.00 0.00 0.00 25 1018.1
20260503025544 63 319 0.0 0.0 0.00 0.00 0.00 24 1018.2
20260503025047 64 319 0.0 2.0 0.00 0.00 0.00 24 1018.2
20260503024544 64 319 0.0 2.0 0.00 0.00 0.00 23 1018.1
20260503024045 64 315 1.0 4.0 0.00 0.00 0.00 23 1018.1
20260503023544 65 323 1.0 4.0 0.00 0.00 0.00 23 1018.1
20260503023043 65 319 1.0 3.0 0.00 0.00 0.00 22 1018.1
20260503022544 65 320 1.0 4.0 0.00 0.00 0.00 22 1018.0
20260503022043 65 329 2.0 4.0 0.00 0.00 0.00 22 1017.9
20260503021543 66 319 2.0 5.0 0.00 0.00 0.00 22 1018.0
20260503021044 66 301 2.0 7.0 0.00 0.00 0.00 21 1017.9
20260503020543 66 314 2.0 8.0 0.00 0.00 0.00 21 1017.9
20260503020043 66 336 2.0 8.0 0.00 0.00 0.00 21 1017.8
20260503015542 66 322 4.0 7.0 0.00 0.00 0.00 21 1017.8
20260503015041 67 328 3.0 7.0 0.00 0.00 0.00 21 1017.8
20260503014541 67 323 2.0 9.0 0.00 0.00 0.00 21 1017.8
20260503014042 67 318 2.0 8.0 0.00 0.00 0.00 21 1017.8
20260503013541 67 327 4.0 8.0 0.00 0.00 0.00 20 1017.9
20260503013041 67 309 2.0 8.0 0.00 0.00 0.00 20 1017.8
20260503012541 68 318 4.0 11.0 0.00 0.00 0.00 20 1017.9
20260503012142 68 331 6.0 11.0 0.00 0.00 0.00 20 1017.8
20260503011542 68 327 6.0 13.0 0.00 0.00 0.00 19 1017.8
20260503011040 68 316 8.0 13.0 0.00 0.00 0.00 19 1017.8
20260503010540 68 334 6.0 11.0 0.00 0.00 0.00 20 1017.8
20260503010040 68 309 4.0 10.0 0.00 0.00 0.00 19 1017.9
20260503005540 68 330 3.0 11.0 0.00 0.00 0.00 19 1017.9
20260503005042 69 335 6.0 11.0 0.00 0.00 0.00 19 1017.9
20260503004539 69 334 6.0 13.0 0.00 0.00 0.00 18 1017.9
20260503004039 69 334 8.0 13.0 0.00 0.00 0.00 18 1017.9
20260503003539 69 328 5.0 12.0 0.00 0.00 0.00 18 1017.9
20260503003039 70 318 7.0 13.0 0.00 0.00 0.00 18 1017.8